Regional Weather Roundup
Issued by NWS

Home | Current Version | Previous Version | Text Only | Print | Product List | Glossary Off
Versions: 1 2 3 4 5 6 7 8 9 10 11 12 13 14 15 16 17 18 19 20 21 22 23 24 25 26 27 28 29 30 31 32 33 34 35 36 37 38 39 40 41 42 43 44 45 46 47 48 49 50

000
ASUS43 KLSX 011107
RWRMO

WEATHER SUMMARY FOR MISSOURI
NATIONAL WEATHER SERVICE SPRINGFIELD MO
600 AM CDT WED JUL 01 2015

NOTE: "FAIR" INDICATES FEW OR NO CLOUDS BELOW 12,000 FEET WITH NO
       SIGNIFICANT WEATHER AND/OR OBSTRUCTIONS TO VISIBILITY.
       CURRENT SKY AND/OR WEATHER CONDITIONS ARE NOT AVAILABLE FOR
       CHILLICOTHE AND FARMINGTON.

MOZ001>031-035>038-043-044-053-054-011200-
...NORTHERN AND WESTERN MISSOURI...

CITY           SKY/WX    TMP DP  RH WIND       PRES   REMARKS
KANSAS CTY INT LGT RAIN  68  66  93 SE13      29.90S
KANSAS C DTWN  LGT RAIN  70  67  90 E6        29.91R
LEE`S SUMMIT   LGT RAIN  68  66  93 E10       29.92F FOG
ST JOSEPH      CLOUDY    70  67  90 S14       29.85F
CHILLICOTHE      N/A     71  68  90 S8        29.88F
KIRKSVILLE     CLOUDY    67  67 100 CALM      29.90F FOG

$$
MOZ066>068-077>081-088>096-101>105-011200-
...SOUTHWEST MISSOURI...

CITY           SKY/WX    TMP DP  RH WIND       PRES   REMARKS
SPRINGFIELD    LGT RAIN  68  65  90 MISG      29.96F
JOPLIN         CLOUDY    80  71  74 SW20G26   29.89R

$$
MOZ032>034-039>042-045>050-055>058-069>072-011200-
...CENTRAL MISSOURI...

CITY           SKY/WX    TMP DP  RH WIND       PRES   REMARKS
COLUMBIA       LGT RAIN  70  67  90 SW8       29.93S FOG
JEFFERSON CITY LGT RAIN  70  68  93 SW7       29.94R FOG
ROLLA          TSTM      68  67  96 S5        29.94S FOG
SEDALIA        HVY RAIN  69  67  93 NE6       29.97R FOG
WHITEMAN AFB   TSTM      69  69  99 E8        29.91S FOG
WARRENSBURG    CLOUDY    68  64  88 CALM      29.94R
OSAGE BEACH    CLOUDY    70  66  88 SW8       29.94R

$$
MOZ051-052-059>065-011200-
...EAST CENTRAL MISSOURI...

CITY           SKY/WX    TMP DP  RH WIND       PRES   REMARKS
ST LOUIS INTL  LGT RAIN  73  70  90 NW8       29.93R FOG
SPIRIT OF STL  CLOUDY    71  70  96 CALM      29.92R FOG
ST CHARLES     LGT RAIN  71  68  90 W7        29.90R FOG

$$
MOZ072>076-082>087-097>100-106>115-011200-
...SOUTH CENTRAL AND SOUTHEAST MISSOURI...

CITY           SKY/WX    TMP DP  RH WIND       PRES   REMARKS
CAPE GIRARDEAU CLOUDY    74  71  91 W3        29.90R
FARMINGTON     CLOUDY    70  66  88 CALM      29.99R
POPLAR BLUFF   CLOUDY    75  72  90 CALM      29.91R
WEST PLAINS    LGT RAIN  73  70  90 W5        29.99R FOG

$$



USA.gov is the U.S. government's official web portal to all federal, state and local government web resources and services.